Location: Stockholm
(59.3293°N, 18.0686°E)
Time: 07:42:01
(UTC+01:00)

Envisat - Visible Passes

Search period start: 22 January 2019 00:00
Search period end: 01 February 2019 00:00
Orbit: 764 x 766 km, 98.2° (Epoch: 20 January)

Date Brightness Start Highest point End Pass type
(mag) Time Alt. Az. Time Alt. Az. Time Alt. Az.
22 Jan 5.4 06:29:10 10° NE 06:33:22 25° E 06:37:32 10° SE visible
22 Jan 2.9 17:52:48 10° SSE 17:57:53 77° ENE 18:03:00 10° NNW visible
22 Jan 5.1 19:33:18 10° SW 19:37:28 25° W 19:41:40 10° NW visible
23 Jan 6.0 05:53:17 10° NE 05:56:04 15° E 05:58:50 10° ESE visible
23 Jan 3.2 17:16:25 10° SE 17:21:14 46° ENE 17:26:06 10° N visible
23 Jan 4.2 18:55:33 10° SSW 19:00:22 43° W 19:05:14 10° NNW visible
24 Jan 4.8 06:54:27 10° NNE 06:59:11 36° E 07:03:52 10° SSE visible
24 Jan 3.8 16:40:25 10° ESE 16:44:45 29° NE 16:49:07 10° N visible
24 Jan 3.2 18:18:21 10° S 18:23:27 74° WSW 18:28:34 10° NNW visible
24 Jan 5.7 20:00:05 10° SW 20:03:23 17° W 20:06:42 10° NW visible
25 Jan 5.7 06:18:08 10° NE 06:22:01 21° E 06:25:53 10° SE visible
25 Jan 2.9 17:41:39 10° SSE 17:46:41 66° ENE 17:51:45 10° NNW visible
25 Jan 4.9 19:21:44 10° SSW 19:26:08 29° W 19:30:35 10° NNW visible
26 Jan 6.2 05:42:38 10° NE 05:44:40 12° ENE 05:46:41 10° ESE visible
26 Jan 4.0 07:19:53 10° NNE 07:24:54 54° E 07:29:53 10° S visible
26 Jan 3.4 17:05:23 10° SE 17:10:06 40° ENE 17:14:50 10° N visible
26 Jan 3.9 18:44:09 10° S 18:49:06 50° W 18:54:04 10° NNW visible
26 Jan 6.1 20:27:49 10° W 20:29:24 11° WNW 20:30:59 10° WNW visible
27 Jan 5.1 06:43:20 10° NNE 06:47:52 31° E 06:52:23 10° SSE visible
27 Jan 4.0 16:29:32 10° ESE 16:33:40 26° NE 16:37:48 10° N visible
27 Jan 3.0 18:07:07 10° SSE 18:12:13 86° WSW 18:17:21 10° NNW visible
27 Jan 5.5 19:48:18 10° SW 19:52:00 20° W 19:55:45 10° NW visible
28 Jan 5.9 06:07:09 10° NE 06:10:39 18° E 06:14:08 10° SE visible
28 Jan 3.0 17:30:33 10° SE 17:35:31 57° ENE 17:40:31 10° NNW visible
28 Jan 4.6 19:10:13 10° SSW 19:14:50 34° W 19:19:29 10° NNW visible
29 Jan 6.5 05:32:49 10° ENE 05:33:14 10° ENE 05:33:40 10° E visible
29 Jan 4.3 07:08:43 10° NNE 07:13:38 46° E 07:18:31 10° S visible
29 Jan 3.6 16:54:23 10° ESE 16:58:58 35° ENE 17:03:34 10° N visible
29 Jan 3.6 18:32:49 10° S 18:37:50 59° WSW 18:42:53 10° NNW visible
29 Jan 6.0 20:15:29 10° WSW 20:17:59 14° W 20:20:29 10° NW visible
30 Jan 5.4 06:32:14 10° NNE 06:36:33 27° E 06:40:49 10° SSE visible
30 Jan 2.9 17:55:55 10° SSE 18:01:00 82° ENE 18:06:08 10° NNW visible
30 Jan 5.3 19:36:37 10° SW 19:40:40 23° W 19:44:44 10° NW visible
31 Jan 6.0 05:56:16 10° NE 05:59:16 16° E 06:02:16 10° ESE visible
31 Jan 3.2 17:19:28 10° SE 17:24:21 49° ENE 17:29:16 10° N visible
31 Jan 4.3 18:58:45 10° SSW 19:03:32 40° W 19:08:20 10° NNW visible
